Location: Elmsmere
(40.9284°N, 73.8207°W)
Time: 00:42:34
(UTC+00:00)

STARLINK-2695 - Visible Passes

Search period start: 24 October 2021 00:00
Search period end: 03 November 2021 00:00
Orbit: 546 x 548 km, 53.1° (Epoch: 23 October)

Date Brightness Start Highest point End Pass type
(mag) Time Alt. Az. Time Alt. Az. Time Alt. Az.
24 Oct 6.6 09:55:36 10° SSE 09:57:47 14° SE 09:59:57 10° E visible
25 Oct 6.2 09:48:23 10° S 09:51:20 19° SE 09:54:17 10° E visible
26 Oct 5.7 09:41:28 10° S 09:44:53 26° SE 09:48:20 10° ENE visible
27 Oct 5.1 09:35:26 14° SSW 09:38:28 34° SE 09:42:13 10° ENE visible
28 Oct 4.4 09:30:23 29° S 09:32:03 47° SE 09:36:01 10° ENE visible
29 Oct 3.8 09:25:05 56° S 09:25:39 64° SE 09:29:44 10° ENE visible
30 Oct 3.7 09:19:36 75° ENE 09:19:36 75° ENE 09:23:24 10° NE visible
30 Oct 5.0 10:55:51 10° WNW 10:59:12 23° NNW 11:02:34 10° NNE visible
31 Oct 4.3 09:13:57 47° NNE 09:13:57 47° NNE 09:17:02 10° NE visible
31 Oct 5.2 10:49:49 10° WNW 10:52:59 21° NNW 10:56:08 10° NNE visible
01 Nov 5.0 09:08:11 32° NNE 09:08:11 32° NNE 09:10:37 10° NE visible
01 Nov 5.4 10:43:48 10° WNW 10:46:46 19° NNW 10:49:43 10° NNE visible
02 Nov 5.5 09:02:20 23° NNE 09:02:20 23° NNE 09:04:10 10° NE visible
02 Nov 5.5 10:37:56 11° NW 10:40:33 17° N 10:43:19 10° NNE visible
